Starlink 3562

operational
NORAD ID: 51861 Int'l Des: 2022-022 Owner: SPXS Country: US Constellation: starlink
LEOCIRCULAR

关于 Starlink 3562

正在加载描述...

实时位置

正在加载3D地球...

即将过境

高度历史

Altitude vs Time

uPlot chart will show altitude changes over time

两行轨道根数

1 51861U 22022K 25351.31111803 -.00000020 00000-0 16831-4 0 9999
2 51861 53.2193 18.9325 0001337 94.9628 265.1517 15.08837671210596
Epoch: Dec 17, 2025 • Age: 13 hours

当前状态

高度 542.7 km
速度 7.59 km/s
星下点 -9.62°S, 19.36°W
发射日期 Mar 3, 2022
运行时间 3.7 years
类型 internet

技术详情

分类 Payload
质量 297.00 kg
干质量 275.00 kg
总质量 297.00 kg
长度 0.20 m
直径 2.80 m
跨度 9.00 m
形状 Box + pan
制造商 SPXS
平台类型 Starlink
阶段状态 In Orbit
所有者/国家 SPXS/US

大型星座

Loading constellations...